Retour au catalogue

AKHMAT-1

ActifScienceSSO
NORAD 57181·PAYLOAD·🇷🇺 Russia
Ce nom de satellite n'a pas encore été confirmé par des sources officielles.

Lancé Jun 27, 2023 depuis Vostochny Cosmodrome

Loading…

Prochains Passages (prochaines 24 heures)

TLE

FraisSource: Space-Track

Époque: Sep 14, 2026, 14:33 UTC

1 57181U 23091R   26257.60661386  .00002036  00000-0  11258-3 0  9996
2 57181  97.4974 310.3535 0014776 182.1578 177.9593 15.14928825177226

Suivez AKHMAT-1 en temps réel avec AllMySat

Download on the App Store